Location: Newark
(53.2933°N, 6.3959°W)
Time: 13:30:15
(UTC+00:00)

Envisat - Pass Details

Date: 29 February 2020
Orbit: 764 x 766 km, 98.1° (Epoch: 07 April)

Event Time Altitude Azimuth Distance (km) Brightness Sun altitude
Rises 19:10:24 0° 202° (SSW) 3,224 6.5 -10.9°
Reaches altitude 10° 19:13:07 10° 216° (SW) 2,303 6.0 -11.3°
Maximum altitude 19:17:11 24° 270° (W) 1,563 5.7 -11.9°
Drops below altitude 10° 19:21:16 10° 323° (NW) 2,317 6.1 -12.5°
Sets 19:24:02 0° 337° (NNW) 3,248 6.6 -12.9°
